South Lake Tahoe, CA

5:20 AM PDT on October 17, 2017 (GMT -0700)
Lake Tahoe

Weather History for KTVL - October, 2011

Change the Weather History Date:

Saturday, October 1, 2011

  Actual Average Record
Temperature  
Mean Temperature 59 °F 50 °F  
Max Temperature 71 °F 69 °F 82 °F (1988)
Min Temperature 46 °F 31 °F 19 °F (1971)
Degree Days  
Heating Degree Days 6 15  
Month to date heating degree days 6 15  
Since 1 July heating degree days 454 641  
Cooling Degree Days 0 0  
Month to date cooling degree days 0 0  
Year to date cooling degree days 19 31  
Growing Degree Days 9 (Base 50)    
Moisture  
Dew Point 31 °F    
Average Humidity 36    
Maximum Humidity 56    
Minimum Humidity 16    
Precipitation  
Precipitation 0.00 in - 0.71 in (1939)
Month to date precipitation 0.00  
Year to date precipitation 13.62  
Snow  
Snow 0.00 in - - ()
Month to date snowfall 0.0  
Snow Depth 0.00 in    
Sea Level Pressure  
Sea Level Pressure 29.95 in    
Wind  
Wind Speed 10 mph (SSW)    
Max Wind Speed 25 mph    
Max Gust Speed 36 mph    
Visibility 10 miles    
Events      
T = Trace of Precipitation, MM = Missing Value Source: NWS Daily Summary

Daily Weather History Graph

Daily Weather History Graph

Search for Another Location

Airport or City:

Trip Planner

Search our weather history database for the weather conditions in past years. The results will help you decide how hot, cold, wet, or windy it might be!

Date:

Astronomy

Oct. 01, 2011 Rise Set
Actual Time 6:55 AM PDT 6:42 PM PDT
Civil Twilight 6:29 AM PDT 7:09 PM PDT
Nautical Twilight 5:58 AM PDT 7:40 PM PDT
Astronomical Twilight 5:27 AM PDT 8:11 PM PDT
Moon 12:04 PM PDT (10/1) 9:48 PM PDT (10/1)
Length of Visible Light 12h 40m
Length of Day
11h 47m
Waxing Crescent, 25% of the Moon is Illuminated
Oct 1
Waxing Crescent
Oct 3
First Quarter
Oct 11
Full
Oct 19
Last Quarter
Oct 26
New

Hourly Weather History & Observations

Time (PDT) Temp. Dew Point Humidity Pressure Visibility Wind Dir Wind Speed Gust Speed Precip Events Conditions
12:53 AM 60.1 °F 32.0 °F 35% 29.88 in 10.0 mi SSW 5.8 mph - N/A   Clear
1:53 AM 60.8 °F 30.2 °F 31% 30.09 in 10.0 mi SSW 11.5 mph 16.1 mph N/A   Clear
2:53 AM 61.0 °F 30.9 °F 32% 29.87 in 10.0 mi SSW 16.1 mph 23.0 mph N/A   Clear
3:53 AM 61.0 °F 33.1 °F 35% 29.88 in 10.0 mi SSW 15.0 mph 23.0 mph N/A   Clear
4:53 AM 57.2 °F 35.6 °F 44% 30.08 in 10.0 mi Calm Calm - N/A   Clear
5:53 AM 57.0 °F 37.0 °F 47% 29.90 in 10.0 mi SSW 5.8 mph - N/A   Clear
6:53 AM 52.0 °F 36.0 °F 54% 29.93 in 10.0 mi Calm Calm - N/A   Clear
7:53 AM 60.1 °F 32.0 °F 35% 29.93 in 10.0 mi South 17.3 mph 23.0 mph N/A   Clear
8:53 AM 62.1 °F 33.1 °F 34% 29.95 in 10.0 mi SSW 19.6 mph 29.9 mph N/A   Clear
9:53 AM 66.0 °F 24.1 °F 20% 29.95 in 10.0 mi South 16.1 mph 25.3 mph N/A   Clear
10:53 AM 66.9 °F 19.0 °F 16% 29.96 in 10.0 mi SSW 11.5 mph 25.3 mph N/A   Clear
11:53 AM 68.0 °F 25.0 °F 20% 29.96 in 10.0 mi South 11.5 mph 27.6 mph N/A   Clear
1:53 PM 70.0 °F 30.9 °F 24% 29.93 in 10.0 mi SSW 11.5 mph 24.2 mph N/A   Clear
2:53 PM 69.1 °F 32.0 °F 25% 29.94 in 10.0 mi SSW 13.8 mph 29.9 mph N/A   Clear
3:53 PM 68.0 °F 34.0 °F 28% 29.93 in 10.0 mi SSW 12.7 mph 26.5 mph N/A   Clear
4:53 PM 66.0 °F 30.9 °F 27% 29.94 in 10.0 mi SSW 13.8 mph 18.4 mph N/A   Clear
5:53 PM 63.0 °F 27.0 °F 26% 29.95 in 10.0 mi SSW 11.5 mph 18.4 mph N/A   Clear
6:53 PM 59.0 °F 30.0 °F 33% 29.97 in 10.0 mi Variable 5.8 mph - N/A   Clear
7:53 PM 55.9 °F 28.9 °F 36% 29.96 in 10.0 mi SSW 3.5 mph - N/A   Clear
8:53 PM 55.0 °F 32.0 °F 42% 29.97 in 10.0 mi South 3.5 mph - N/A   Clear
9:53 PM 54.0 °F 35.1 °F 49% 29.97 in 10.0 mi SSW 4.6 mph - N/A   Clear
10:53 PM 48.0 °F 34.0 °F 58% 29.99 in 10.0 mi Calm Calm - N/A   Clear
11:53 PM 50.0 °F 32.0 °F 50% 29.97 in 10.0 mi Calm Calm - N/A   Clear